Regional Weather Roundup
Issued by NWS

Home | Current Version | Previous Version | Graphics & Text | Print | Product List | Glossary On
Versions: 1 2 3 4 5 6 7 8 9 10 11 12 13 14 15 16 17 18 19 20 21 22 23 24 25 26 27 28 29 30 31 32 33 34 35 36 37 38 39 40 41 42 43 44 45 46 47 48 49 50
597
ASUS45 KCYS 240410
RWRWY

WYOMING REGIONAL WEATHER ROUNDUP
NATIONAL WEATHER SERVICE CHEYENNE WY
1000 PM MDT MON MAY 23 2016

NOTE:  "FAIR" INDICATES FEW OR NO CLOUDS BELOW 12,000 FEET
WITH NO SIGNIFICANT WEATHER AND/OR OBSTRUCTIONS TO VISIBILITY.

WYZ001-240500-
YELLOWSTONE NATIONAL PARK

CITY           SKY/WX    TMP DP  RH WIND       PRES   REMARKS
LK YELLOWSTONE   N/A     30  26  85 CALM      29.96R
W YELLOWSTONE  NOT AVBL

$$
WYZ002>013-054>058-071-098>099-240500-
NORTHERN WYOMING

CITY           SKY/WX    TMP DP  RH WIND       PRES   REMARKS
JACKSON        CLOUDY    45  30  57 CALM      29.93R
CODY           FAIR      48  34  57 CALM      29.86R
GREYBULL       FAIR      57  26  30 NW6       29.82R
WORLAND        FAIR      46  29  51 CALM      29.83R
SHERIDAN       FAIR      46  37  71 W8        29.87R
BUFFALO        FAIR      50  34  54 NW12      29.89R
GILLETTE       FAIR      46  32  58 NW7       29.85R
HULETT         FAIR      55  32  41 N8        29.86R
NEWCASTLE      FAIR      55  21  26 CALM      29.84R

$$
WYZ014>020-022>026-101>103-240500-
CENTRAL WYOMING

CITY           SKY/WX    TMP DP  RH WIND       PRES   REMARKS
BIG PINEY      FAIR      37  30  75 N9        29.97R WCI  30
PINEDALE       FAIR      36  30  80 W5        29.98R WCI  32
DUBOIS         FAIR      41  27  56 NW5       29.94R
LANDER         FAIR      51  26  37 CALM      29.88R
RIVERTON       FAIR      50  27  40 NW10      29.89R
CASPER         FAIR      42  30  62 W7        29.90R
DOUGLAS        FAIR      45  33  63 S3        29.90R

$$
WYZ021-027>030-104>119-240500-
SOUTHERN WYOMING

CITY           SKY/WX    TMP DP  RH WIND       PRES   REMARKS
EVANSTON       FAIR      49  23  36 CALM      29.95R
KEMMERER         N/A     41  30  65 N8        29.97R
FORT BRIDGER   CLEAR     45  34  65 S6        30.00R
ROCK SPRINGS   CLOUDY    48  32  53 SW8       29.96R
DIXON          FAIR      50  31  46 CALM      29.99R
RAWLINS        FAIR      40  28  62 CALM      29.97R
SARATOGA       FAIR      41  32  70 SE3       30.00R
LARAMIE        FAIR      43  30  60 NE5       30.00R
CHEYENNE       FAIR      48  38  68 W6        29.96R
TORRINGTON     FAIR      50  43  77 SE8       29.87R
PINE BLUFFS    FAIR      45  39  81 CALM      29.95R

$$




USA.gov is the U.S. government's official web portal to all federal, state and local government web resources and services.